Location: Newark
(16.3678°N, 77.8722°E)
Time: 07:27:17
(UTC+00:00)

Vanguard 1 Rocket - All Passes

Search period start: 10 December 2019 00:00
Search period end: 20 December 2019 00:00
Orbit: 650 x 4226 km, 34.3° (Epoch: 09 December)

Date Brightness Start Highest point End Pass type
(mag) Time Alt. Az. Time Alt. Az. Time Alt. Az.
10 Dec - 09:10:04 10° S 09:23:09 16° SE 09:36:15 10° ESE daylight
10 Dec - 11:33:09 10° SSW 11:57:47 49° SE 12:16:00 10° ENE daylight
10 Dec - 14:05:00 10° WSW 14:29:57 81° NNW 14:43:44 10° NE visible
10 Dec - 16:44:14 10° W 16:59:52 37° NNW 17:08:30 10° NE visible
10 Dec - 19:22:15 10° NW 19:29:03 21° N 19:33:40 10° NE night (unlit)
10 Dec - 21:50:49 10° NW 21:56:12 49° NNE 22:00:26 10° ESE visible
11 Dec - 00:18:18 10° WSW 00:20:57 15° SSW 00:23:52 10° S visible
11 Dec - 10:20:37 10° SSW 10:42:18 34° SE 11:01:17 10° E daylight
11 Dec - 12:49:09 10° SW 13:15:31 78° SE 13:32:05 10° ENE visible
11 Dec - 15:25:36 10° W 15:46:34 52° NNW 15:57:47 10° NE visible
11 Dec - 18:06:11 10° WNW 18:16:22 26° N 18:22:38 10° NE visible
11 Dec - 20:38:41 10° NW 20:44:49 30° NNE 20:49:03 10° ENE night (unlit)
11 Dec - 23:05:42 10° WNW 23:10:05 38° SW 23:14:16 10° SSE visible
12 Dec - 09:09:57 10° S 09:26:34 22° SE 09:43:17 10° E daylight
12 Dec - 11:34:48 10° SW 12:00:26 59° SE 12:19:29 10° ENE daylight
12 Dec - 14:07:47 10° WSW 14:32:41 70° NNW 14:46:44 10° NE visible
12 Dec - 16:48:08 10° WNW 17:03:15 34° NNW 17:11:47 10° NE visible
12 Dec - 19:25:13 10° NW 19:32:44 25° N 19:37:37 10° ENE night (unlit)
12 Dec - 21:53:41 10° WNW 21:59:24 82° NNE 22:03:46 10° ESE visible
13 Dec - 08:04:37 10° SSE 08:10:32 11° SE 08:16:42 10° SE daylight
13 Dec - 10:21:56 10° SSW 10:45:01 42° SE 11:05:24 10° ENE daylight
13 Dec - 12:51:27 10° SW 13:18:08 90° SE 13:35:07 10° ENE visible
13 Dec - 15:29:13 10° W 15:49:40 46° NNW 16:00:54 10° NE visible
13 Dec - 18:09:41 10° WNW 18:20:04 27° N 18:26:21 10° NE visible
13 Dec - 20:41:21 10° NW 20:48:16 42° NNE 20:52:47 10° E night (unlit)
13 Dec - 23:09:27 10° W 23:13:04 22° SW 23:16:31 10° SSE visible
14 Dec - 09:10:39 10° S 09:29:33 28° SE 09:48:49 10° E daylight
14 Dec - 11:36:43 10° SW 12:02:57 70° SE 12:22:42 10° ENE daylight
14 Dec - 14:10:53 10° WSW 14:35:31 61° NNW 14:49:44 10° NE visible
14 Dec - 16:52:00 10° WNW 17:06:48 32° NNW 17:15:15 10° NE visible
14 Dec - 19:28:01 10° NW 19:36:23 31° N 19:41:32 10° ENE night (unlit)
14 Dec - 21:56:45 10° WNW 22:02:28 59° SW 22:06:46 10° SE visible
15 Dec - 08:02:03 10° S 08:14:05 16° SE 08:27:17 10° ESE daylight
15 Dec - 10:23:32 10° SSW 10:47:31 52° SE 11:09:03 10° ENE daylight
15 Dec - 12:54:02 10° WSW 13:20:44 80° NNW 13:38:06 10° NE visible
15 Dec - 15:33:01 10° W 15:52:57 42° NNW 16:04:07 10° NE visible
15 Dec - 18:12:55 10° NW 18:23:48 29° N 18:30:11 10° ENE visible
15 Dec - 20:44:06 10° NW 20:51:35 64° NNE 20:56:16 10° ESE night (unlit)
15 Dec - 23:14:16 10° WSW 23:16:01 12° SW 23:17:42 10° SSW visible
16 Dec - 09:11:50 10° SSW 09:32:12 36° SE 09:53:24 10° E daylight
16 Dec - 11:38:55 10° SW 12:05:25 81° SE 12:25:46 10° ENE daylight
16 Dec - 14:14:16 10° W 14:38:30 54° NNW 14:52:47 10° NE visible
16 Dec - 16:55:44 10° WNW 17:10:29 33° N 17:18:51 10° NE visible
16 Dec - 19:30:43 10° NW 19:39:58 41° NNE 19:45:19 10° E night (unlit)
16 Dec - 22:00:05 10° WNW 22:05:24 34° SW 22:09:27 10° SSE visible
17 Dec - 08:02:04 10° S 08:17:07 22° SE 08:34:16 10° E daylight
17 Dec - 10:25:25 10° SW 10:49:54 62° SE 11:12:22 10° ENE daylight
17 Dec - 12:56:56 10° WSW 13:23:26 70° NNW 13:41:04 10° NE visible
17 Dec - 15:36:54 10° W 15:56:26 39° NNW 16:07:29 10° NE visible
17 Dec - 18:15:56 10° NW 18:27:30 34° N 18:34:03 10° ENE visible
17 Dec - 20:46:56 10° WNW 20:54:44 85° SSW 20:59:31 10° SE night (unlit)
18 Dec - 07:00:51 10° SE 07:02:05 10° SE 07:03:20 10° SE daylight
18 Dec - 09:13:24 10° SSW 09:34:35 44° SE 09:57:22 10° ENE daylight
18 Dec - 11:41:23 10° SW 12:07:54 88° NW 12:28:43 10° ENE daylight
18 Dec - 14:17:54 10° W 14:41:40 49° NNW 14:55:56 10° NE visible
18 Dec - 16:59:13 10° WNW 17:14:13 34° N 17:22:36 10° ENE visible
18 Dec - 19:33:23 10° NW 19:43:23 55° NNE 19:48:54 10° ESE night (unlit)
18 Dec - 22:03:53 10° W 22:08:11 21° SW 22:11:39 10° S visible
19 Dec - 08:02:58 10° S 08:19:45 28° SE 08:39:42 10° E daylight
19 Dec - 10:27:33 10° SW 10:52:13 72° SE 11:15:28 10° ENE daylight
19 Dec - 13:00:07 10° WSW 13:26:17 62° NNW 13:44:03 10° NE visible
19 Dec - 15:40:45 10° WNW 16:00:03 38° N 16:11:01 10° ENE visible
19 Dec - 18:18:44 10° NW 18:31:09 41° NNE 18:37:51 10° E visible
19 Dec - 20:49:57 10° WNW 20:57:41 54° SW 21:02:28 10° SE night (unlit)
